This demonstration page uses our WeatherBlox Daily Observations layout. Learn more.

Hourly Observations for December 9, 2017

Temp ( °F °C ) Dew Point ( °F °C ) Humidity (%) Winds ( mph kmh ) Pressure ( in mb ) Visibility ( mi km ) Precip ( " mm )
12:53 am 00:53 Clear 17 -8.3 13 -10.6 84 84 Calm 29.98 1015 10 16.0934 0 0
1:53 am 01:53 Clear 16 -8.9 13 -10.6 88 88 Calm 29.95 1014 10 16.0934 0 0
2:53 am 02:53 Clear 15 -9.4 13 -10.6 91 91 Calm 29.95 1014 10 16.0934 0 0
3:53 am 03:53 Clear 18 -7.8 13 -10.6 81 81 SE 3 6 29.93 1013 10 16.0934 0 0
4:53 am 04:53 Clear 18 -7.8 13 -10.6 81 81 ESE 3 6 29.9 1013 10 16.0934 0 0
5:53 am 05:53 Clear 19 -7.2 14 -10 81 81 E 5 7 29.88 1012 10 16.0934 0 0
6:53 am 06:53 Cloudy 22 -5.6 17 -8.3 82 82 Calm 29.88 1012 10 16.0934 0 0
7:53 am 07:53 Cloudy 24 -4.4 16 -8.9 71 71 VRB 3 6 29.87 1012 10 16.0934 0 0
8:53 am 08:53 Cloudy 25 -3.9 16 -8.9 69 69 VRB 5 7 29.85 1011 10 16.0934 0 0
9:53 am 09:53 Cloudy 27 -2.8 16 -8.9 63 63 S 6 9 29.83 1010 10 16.0934 0 0
10:53 am 10:53 Cloudy 29 -1.7 16 -8.9 58 58 SSW 7 11 29.82 1010 10 16.0934 0 0
11:50 am 11:50 Cloudy with Light Snow 28 -2 18 -8 64 64 WSW 9 15 29.85 1011 9 14.48406 0 0.0254
11:53 am 11:53 Cloudy with Light Snow 29 -1.7 18 -7.8 63 63 WSW 9 15 29.83 1010 8 12.87472 0 0.0254
12:41 pm 12:41 Cloudy 29 -1.7 21 -6.1 72 72 SSW 8 13 29.85 1011 9 14.48406 0 0.0254
12:53 pm 12:53 Cloudy with Light Snow 29 -1.7 21 -6.1 72 72 SSW 7 11 29.81 1010 8 12.87472 0 0.0254
1:16 pm 13:16 Cloudy with Light Snow 28 -2.2 22 -5.6 78 78 SW 8 13 29.85 1011 3 4.82802 0 0.0254
1:53 pm 13:53 Cloudy with Light Snow 28 -2.2 23 -5 81 81 SW 7 11 29.81 1010 7 11.26538 0 0.0254
2:53 pm 14:53 Cloudy with Light Snow 29 -1.7 23 -5 78 78 W 10 17 29.84 1010 2.5 4.02335 0 0.0254
3:05 pm 15:05 Cloudy with Light Snow 29 -1.7 24 -4.4 82 82 WSW 7 11 29.85 1011 1.75 2.816345 0 0.0254
3:13 pm 15:13 Cloudy with Light Snow 29 -1.7 24 -4.4 82 82 WSW 8 13 29.88 1012 2.5 4.02335 0 0.0254
3:53 pm 15:53 Cloudy with Light Snow 29 -1.7 25 -3.9 85 85 WSW 7 11 29.86 1011 4 6.43736 0 0.0254
4:21 pm 16:21 Cloudy with Light Snow 29 -1.7 25 -3.9 85 85 WSW 6 9 29.91 1013 2 3.21868 0 0.0254
4:24 pm 16:24 Cloudy with Light Snow 29 -1.7 25 -3.9 85 85 WSW 5 7 29.91 1013 1.5 2.41401 0 0.0254
4:29 pm 16:29 Cloudy with Snow 29 -1.7 26 -3.3 89 89 WSW 7 11 29.91 1013 0.5 0.80467 0 0.0254
4:38 pm 16:38 Cloudy with Light Snow 29 -1.7 27 -2.8 92 92 WSW 3 6 29.91 1013 1 1.60934 0 0.0254
4:41 pm 16:41 Cloudy with Light Snow 29 -1.7 27 -2.8 92 92 WSW 3 6 29.91 1013 2.5 4.02335 0 0.0254
4:49 pm 16:49 Cloudy with Light Snow 28 -2 27 -3 93 93 WSW 6 9 29.94 1014 3 4.82802 0.01 0.254
4:53 pm 16:53 Cloudy with Light Snow 29 -1.7 27 -2.8 92 92 WSW 7 11 29.89 1012 4 6.43736 0.01 0.254
5:33 pm 17:33 Cloudy 29 -1.7 26 -3.3 89 89 WSW 8 13 29.94 1014 8 12.87472 0 0.0254
5:53 pm 17:53 Cloudy 29 -1.7 26 -3.3 89 89 SW 8 13 29.91 1013 9 14.48406 0 0.0254
6:41 pm 18:41 Cloudy with Light Snow 30 -1.1 26 -3.3 85 85 WSW 7 11 29.97 1015 4 6.43736 0 0.0254
6:53 pm 18:53 Cloudy with Light Snow 30 -1.1 26 -3.3 85 85 WSW 8 13 29.94 1014 4 6.43736 0 0.0254
7:14 pm 19:14 Cloudy with Light Snow 29 -1.7 24 -4.4 82 82 WSW 15 24 30 1016 2.5 4.02335 0 0.0254
7:22 pm 19:22 Cloudy with Light Snow 29 -1.7 24 -4.4 82 82 W 14 22 30 1016 5 8.0467 0 0.0254
7:53 pm 19:53 Cloudy with Light Snow 29 -1.7 24 -4.4 82 82 W 13 20 29.97 1015 5 8.0467 0 0.0254
8:53 pm 20:53 Cloudy 30 -1.1 24 -4.4 79 79 W 10 17 29.99 1016 10 16.0934 0 0.0254
9:53 pm 21:53 Cloudy 30 -1.1 23 -5 75 75 W 13 20 30.02 1017 10 16.0934 0 0.0254
10:53 pm 22:53 Cloudy 30 -1.1 23 -5 75 75 WNW 14 22 30.06 1018 10 16.0934 0 0
11:53 pm 23:53 Cloudy 30 -1.1 22 -5.6 72 72 W 14 22 30.08 1019 10 16.0934 0 0

Powered by AerisWeather